ACA711 KLGA-CYYZ

Flight info

Callsign ACA711
Flight time 1h 10m
Altitude 36000
Route GAYEL Q818 WOZEE LINNG3
Aircraft A321/M-SDE3FGHIRWY/LB1

Departure

Time 2026-05-06 15:20
Airport LaGuardia Airport (KLGA)

Arrival

Time 2026-05-06 16:30
Airport Toronto Pearson International Airport (CYYZ)
Time Latitude Longitude Altitude Speed Heading
2026-05-06 15:04 40.77351 -73.86749 20 ft 0 kts 246°
2026-05-06 15:12 40.77353 -73.86741 20 ft 2 kts 242°
2026-05-06 15:12 40.77364 -73.86720 21 ft 3 kts 224°
2026-05-06 15:12 40.77379 -73.86703 23 ft 3 kts 214°
2026-05-06 15:12 40.77394 -73.86689 24 ft 3 kts 248°
2026-05-06 15:13 40.77402 -73.86690 24 ft 3 kts 323°
2026-05-06 15:13 40.77409 -73.86694 22 ft 0 kts 339°
2026-05-06 15:15 40.77417 -73.86698 20 ft 2 kts 339°
2026-05-06 15:15 40.77437 -73.86698 17 ft 5 kts 11°
2026-05-06 15:15 40.77499 -73.86721 12 ft 13 kts 321°
2026-05-06 15:16 40.77550 -73.86802 13 ft 10 kts 306°
2026-05-06 15:16 40.77584 -73.86873 14 ft 9 kts 301°
2026-05-06 15:16 40.77624 -73.86958 14 ft 13 kts 302°
2026-05-06 15:16 40.77667 -73.87048 16 ft 11 kts 302°
2026-05-06 15:17 40.77703 -73.87122 15 ft 9 kts 302°
2026-05-06 15:17 40.77734 -73.87186 15 ft 8 kts 302°
2026-05-06 15:17 40.77780 -73.87250 14 ft 10 kts 349°
2026-05-06 15:17 40.77844 -73.87287 14 ft 10 kts 321°
2026-05-06 15:18 40.77889 -73.87374 15 ft 15 kts 301°
2026-05-06 15:18 40.77942 -73.87487 16 ft 13 kts 302°
2026-05-06 15:18 40.77993 -73.87594 15 ft 18 kts 302°
2026-05-06 15:18 40.78068 -73.87751 17 ft 20 kts 302°
2026-05-06 15:19 40.78145 -73.87856 24 ft 15 kts 343°
2026-05-06 15:19 40.78199 -73.87799 19 ft 12 kts 105°
2026-05-06 15:19 40.78132 -73.87649 23 ft 42 kts 122°
2026-05-06 15:19 40.77845 -73.87046 15 ft 109 kts 121°
2026-05-06 15:20 40.77335 -73.86011 56 ft 153 kts 126°
2026-05-06 15:20 40.76759 -73.84824 673 ft 153 kts 131°
2026-05-06 15:20 40.75960 -73.84042 1366 ft 142 kts 169°
2026-05-06 15:20 40.75004 -73.83741 1958 ft 144 kts 177°
2026-05-06 15:21 40.73965 -73.83434 2193 ft 163 kts 177°
2026-05-06 15:21 40.72796 -73.83087 2340 ft 186 kts 176°
2026-05-06 15:21 40.71477 -73.82999 2729 ft 199 kts 201°
2026-05-06 15:21 40.70337 -73.84036 3708 ft 197 kts 230°
2026-05-06 15:22 40.69470 -73.85365 4989 ft 191 kts 228°
2026-05-06 15:22 40.68653 -73.86600 5915 ft 194 kts 227°
2026-05-06 15:22 40.67755 -73.87966 6903 ft 200 kts 230°
2026-05-06 15:22 40.67267 -73.89620 7739 ft 217 kts 262°
2026-05-06 15:23 40.67588 -73.91598 8204 ft 252 kts 283°
2026-05-06 15:23 40.68412 -73.93732 8640 ft 273 kts 292°
2026-05-06 15:23 40.69419 -73.95807 9286 ft 282 kts 296°
2026-05-06 15:23 40.70807 -73.97732 9953 ft 301 kts 315°
2026-05-06 15:24 40.72532 -73.99253 10359 ft 319 kts 317°
2026-05-06 15:24 40.74398 -74.01011 10528 ft 339 kts 315°
2026-05-06 15:24 40.75643 -74.02256 10786 ft 347 kts 314°
2026-05-06 15:25 40.77314 -74.03966 11325 ft 350 kts 314°
2026-05-06 15:25 40.79239 -74.05955 11990 ft 353 kts 313°
2026-05-06 15:25 40.81195 -74.07976 12716 ft 356 kts 313°
2026-05-06 15:25 40.83157 -74.09994 13450 ft 358 kts 313°
2026-05-06 15:26 40.85109 -74.11994 14111 ft 360 kts 313°
2026-05-06 15:26 40.86918 -74.13842 14704 ft 361 kts 313°
2026-05-06 15:26 40.88908 -74.15870 15365 ft 363 kts 313°
2026-05-06 15:26 40.90917 -74.17917 16010 ft 365 kts 314°
2026-05-06 15:27 40.92940 -74.19979 16684 ft 367 kts 313°
2026-05-06 15:27 40.93541 -74.20592 16879 ft 368 kts 314°
2026-05-06 15:28 40.95481 -74.22576 17515 ft 369 kts 313°
2026-05-06 15:28 40.97518 -74.24663 18154 ft 371 kts 313°
2026-05-06 15:28 40.98392 -74.25560 18404 ft 371 kts 313°
2026-05-06 15:29 40.98716 -74.25893 18466 ft 372 kts 313°
2026-05-06 15:29 41.00771 -74.27997 19001 ft 374 kts 314°
2026-05-06 15:29 41.02839 -74.30113 19513 ft 376 kts 314°
2026-05-06 15:29 41.04918 -74.32240 20013 ft 378 kts 314°
2026-05-06 15:30 41.07017 -74.34355 20507 ft 383 kts 317°
2026-05-06 15:30 41.09231 -74.36356 21023 ft 386 kts 318°
2026-05-06 15:30 41.11454 -74.38281 21562 ft 388 kts 319°
2026-05-06 15:30 41.13741 -74.40215 22107 ft 390 kts 319°
2026-05-06 15:31 41.16049 -74.42152 22549 ft 394 kts 319°
2026-05-06 15:31 41.18373 -74.44107 23009 ft 397 kts 319°
2026-05-06 15:31 41.20716 -74.46090 23466 ft 399 kts 319°
2026-05-06 15:32 41.25410 -74.50100 24239 ft 402 kts 319°
2026-05-06 15:32 41.27771 -74.52123 24627 ft 404 kts 319°
2026-05-06 15:32 41.30113 -74.54131 25010 ft 405 kts 319°
2026-05-06 15:32 41.32482 -74.56166 25408 ft 407 kts 319°
2026-05-06 15:33 41.34870 -74.58224 25818 ft 408 kts 319°
2026-05-06 15:33 41.37264 -74.60290 26258 ft 410 kts 319°
2026-05-06 15:33 41.39667 -74.62365 26610 ft 413 kts 319°
2026-05-06 15:33 41.42067 -74.64441 26961 ft 416 kts 319°
2026-05-06 15:34 41.44531 -74.66571 27317 ft 418 kts 319°
2026-05-06 15:34 41.46956 -74.68665 27669 ft 420 kts 319°
2026-05-06 15:34 41.49414 -74.70794 28027 ft 421 kts 319°
2026-05-06 15:34 41.51883 -74.72938 28387 ft 423 kts 319°
2026-05-06 15:35 41.54353 -74.75084 28757 ft 425 kts 319°
2026-05-06 15:35 41.56814 -74.77234 29090 ft 425 kts 317°
2026-05-06 15:35 41.59067 -74.79735 29411 ft 417 kts 307°
2026-05-06 15:35 41.60889 -74.82684 29753 ft 409 kts 297°
2026-05-06 15:36 41.61867 -74.84835 29961 ft 407 kts 294°
2026-05-06 15:36 41.63288 -74.88162 30232 ft 408 kts 294°
2026-05-06 15:36 41.64679 -74.91430 30519 ft 409 kts 294°
2026-05-06 15:36 41.66097 -74.94764 30816 ft 410 kts 294°
2026-05-06 15:37 41.67509 -74.98084 31153 ft 410 kts 293°
2026-05-06 15:37 41.68899 -75.01356 31555 ft 408 kts 293°
2026-05-06 15:37 41.70300 -75.04661 31995 ft 406 kts 293°
2026-05-06 15:37 41.71692 -75.07942 32463 ft 403 kts 292°
2026-05-06 15:38 41.73060 -75.11158 32986 ft 398 kts 292°
2026-05-06 15:38 41.74423 -75.14361 33509 ft 394 kts 292°
2026-05-06 15:38 41.75774 -75.17540 33965 ft 390 kts 292°
2026-05-06 15:38 41.77105 -75.20680 34378 ft 387 kts 292°
2026-05-06 15:39 41.78423 -75.23807 34786 ft 383 kts 292°
2026-05-06 15:39 41.79725 -75.26905 35212 ft 379 kts 292°
2026-05-06 15:39 41.81008 -75.29957 35628 ft 375 kts 292°
2026-05-06 15:39 41.82289 -75.33002 35798 ft 372 kts 292°
2026-05-06 15:40 41.84804 -75.38963 35818 ft 364 kts 292°
2026-05-06 15:40 41.87269 -75.44852 35821 ft 363 kts 291°
2026-05-06 15:41 41.89734 -75.50757 35810 ft 362 kts 291°
2026-05-06 15:41 41.92201 -75.56669 35811 ft 362 kts 291°
2026-05-06 15:42 41.94660 -75.62562 35807 ft 362 kts 291°
2026-05-06 15:42 41.97106 -75.68440 35803 ft 362 kts 291°
2026-05-06 15:43 41.99564 -75.74356 35805 ft 362 kts 291°
2026-05-06 15:43 42.02024 -75.80279 35827 ft 362 kts 291°
2026-05-06 15:44 42.04453 -75.86161 35821 ft 361 kts 291°
2026-05-06 15:44 42.06890 -75.92073 35813 ft 358 kts 291°
2026-05-06 15:45 42.08087 -75.94973 35645 ft 353 kts 291°
2026-05-06 15:45 42.09282 -75.97873 35044 ft 354 kts 291°
2026-05-06 15:45 42.10482 -76.00786 34360 ft 356 kts 291°
2026-05-06 15:45 42.11686 -76.03713 33935 ft 355 kts 290°
2026-05-06 15:46 42.12874 -76.06611 33787 ft 360 kts 290°
2026-05-06 15:46 42.14088 -76.09585 33805 ft 363 kts 290°
2026-05-06 15:46 42.16396 -76.15653 33837 ft 364 kts 286°
2026-05-06 15:47 42.18422 -76.21973 33817 ft 371 kts 286°
2026-05-06 15:47 42.20490 -76.28401 33814 ft 375 kts 286°
2026-05-06 15:48 42.22526 -76.34695 33809 ft 352 kts 286°
2026-05-06 15:48 42.24439 -76.40666 33831 ft 349 kts 285°
2026-05-06 15:49 42.26387 -76.46858 33840 ft 365 kts 285°
2026-05-06 15:49 42.28393 -76.53174 33850 ft 362 kts 285°
2026-05-06 15:50 42.30364 -76.59339 33837 ft 358 kts 285°
2026-05-06 15:50 42.32324 -76.65535 33845 ft 357 kts 285°
2026-05-06 15:51 42.34272 -76.71708 33855 ft 357 kts 285°
2026-05-06 15:51 42.36222 -76.77904 33857 ft 357 kts 285°
2026-05-06 15:52 42.38152 -76.84053 33858 ft 357 kts 285°
2026-05-06 15:52 42.40094 -76.90253 33913 ft 356 kts 285°
2026-05-06 15:53 42.42021 -76.96433 33909 ft 355 kts 285°
2026-05-06 15:53 42.43932 -77.02562 33892 ft 354 kts 285°
2026-05-06 15:54 42.45846 -77.08693 33894 ft 353 kts 285°
2026-05-06 15:54 42.47742 -77.14793 33890 ft 353 kts 285°
2026-05-06 15:55 42.49654 -77.20959 33885 ft 352 kts 285°
2026-05-06 15:55 42.51533 -77.27046 33900 ft 352 kts 284°
2026-05-06 15:56 42.53424 -77.33191 33898 ft 353 kts 284°
2026-05-06 15:56 42.55305 -77.39312 33888 ft 354 kts 284°
2026-05-06 15:57 42.57203 -77.45509 33880 ft 354 kts 284°
2026-05-06 15:57 42.59087 -77.51672 33878 ft 355 kts 284°
2026-05-06 15:58 42.60973 -77.57831 33880 ft 355 kts 284°
2026-05-06 15:58 42.62870 -77.64036 33903 ft 355 kts 284°
2026-05-06 15:59 42.64760 -77.70232 33897 ft 356 kts 284°
2026-05-06 15:59 42.66638 -77.76464 33893 ft 356 kts 283°
2026-05-06 16:00 42.68402 -77.82733 33871 ft 355 kts 283°
2026-05-06 16:00 42.70134 -77.89028 33879 ft 355 kts 283°
2026-05-06 16:01 42.71855 -77.95301 33887 ft 355 kts 283°
2026-05-06 16:01 42.72727 -77.98458 33753 ft 356 kts 283°
2026-05-06 16:01 42.73600 -78.01603 33487 ft 357 kts 283°
2026-05-06 16:02 42.74483 -78.04777 33215 ft 359 kts 283°
2026-05-06 16:02 42.75371 -78.07970 32954 ft 361 kts 283°
2026-05-06 16:02 42.76251 -78.11143 32686 ft 362 kts 283°
2026-05-06 16:02 42.77136 -78.14342 32282 ft 358 kts 283°
2026-05-06 16:03 42.78008 -78.17491 31831 ft 354 kts 283°
2026-05-06 16:03 42.78869 -78.20612 31391 ft 349 kts 283°
2026-05-06 16:03 42.79718 -78.23693 30960 ft 345 kts 283°
2026-05-06 16:03 42.80560 -78.26750 30521 ft 343 kts 283°
2026-05-06 16:04 42.81389 -78.29753 30101 ft 343 kts 283°
2026-05-06 16:04 42.82225 -78.32805 29644 ft 343 kts 283°
2026-05-06 16:04 42.83059 -78.35858 29209 ft 342 kts 283°
2026-05-06 16:04 42.83888 -78.38896 28788 ft 340 kts 283°
2026-05-06 16:05 42.84701 -78.41874 28380 ft 339 kts 283°
2026-05-06 16:05 42.85524 -78.44887 27957 ft 338 kts 283°
2026-05-06 16:05 42.86339 -78.47878 27543 ft 336 kts 283°
2026-05-06 16:05 42.87151 -78.50855 27142 ft 333 kts 283°
2026-05-06 16:06 42.87950 -78.53784 26747 ft 331 kts 283°
2026-05-06 16:06 42.88744 -78.56709 26358 ft 328 kts 283°
2026-05-06 16:06 42.89534 -78.59623 25995 ft 326 kts 284°
2026-05-06 16:06 42.90313 -78.62514 25624 ft 323 kts 284°
2026-05-06 16:07 42.91084 -78.65382 25254 ft 321 kts 284°
2026-05-06 16:07 42.91853 -78.68238 24904 ft 319 kts 284°
2026-05-06 16:07 42.92608 -78.71030 24541 ft 317 kts 285°
2026-05-06 16:07 42.93508 -78.73786 24113 ft 320 kts 294°
2026-05-06 16:08 42.94815 -78.76285 23671 ft 325 kts 303°
2026-05-06 16:08 42.96264 -78.78659 23193 ft 324 kts 303°
2026-05-06 16:08 42.97703 -78.81026 22733 ft 322 kts 303°
2026-05-06 16:08 42.99107 -78.83340 22296 ft 319 kts 303°
2026-05-06 16:09 43.00519 -78.85671 21867 ft 316 kts 303°
2026-05-06 16:09 43.01920 -78.87991 21433 ft 314 kts 302°
2026-05-06 16:09 43.03307 -78.90297 20995 ft 312 kts 302°
2026-05-06 16:09 43.04685 -78.92586 20560 ft 311 kts 302°
2026-05-06 16:10 43.06039 -78.94843 20136 ft 309 kts 302°
2026-05-06 16:10 43.07397 -78.97109 19701 ft 308 kts 302°
2026-05-06 16:10 43.08756 -78.99384 19300 ft 306 kts 302°
2026-05-06 16:10 43.10106 -79.01643 18925 ft 304 kts 302°
2026-05-06 16:11 43.11442 -79.03878 18515 ft 304 kts 302°
2026-05-06 16:11 43.12784 -79.06120 18120 ft 303 kts 302°
2026-05-06 16:11 43.14105 -79.08322 17695 ft 302 kts 302°
2026-05-06 16:11 43.15433 -79.10538 17289 ft 300 kts 302°
2026-05-06 16:12 43.16748 -79.12736 16899 ft 298 kts 302°
2026-05-06 16:12 43.18061 -79.14933 16506 ft 297 kts 302°
2026-05-06 16:12 43.19365 -79.17118 16117 ft 295 kts 302°
2026-05-06 16:12 43.20659 -79.19291 15743 ft 294 kts 302°
2026-05-06 16:13 43.21954 -79.21465 15359 ft 293 kts 302°
2026-05-06 16:13 43.23239 -79.23622 14985 ft 292 kts 302°
2026-05-06 16:13 43.24524 -79.25782 14603 ft 291 kts 302°
2026-05-06 16:13 43.25803 -79.27938 14227 ft 290 kts 302°
2026-05-06 16:14 43.27080 -79.30091 13844 ft 290 kts 302°
2026-05-06 16:14 43.28337 -79.32209 13438 ft 289 kts 302°
2026-05-06 16:14 43.29717 -79.34239 13028 ft 293 kts 313°
2026-05-06 16:14 43.31435 -79.35813 12635 ft 301 kts 326°
2026-05-06 16:15 43.33407 -79.36805 12475 ft 304 kts 336°
2026-05-06 16:15 43.35440 -79.37656 12379 ft 305 kts 335°
2026-05-06 16:15 43.37451 -79.38512 12186 ft 305 kts 335°
2026-05-06 16:15 43.39502 -79.39396 11583 ft 311 kts 335°
2026-05-06 16:16 43.41545 -79.40273 11329 ft 304 kts 335°
2026-05-06 16:16 43.43564 -79.41138 10958 ft 302 kts 335°
2026-05-06 16:16 43.45569 -79.41999 10588 ft 300 kts 336°
2026-05-06 16:16 43.47535 -79.42845 10230 ft 298 kts 336°
2026-05-06 16:17 43.49500 -79.43691 9853 ft 297 kts 336°
2026-05-06 16:17 43.51511 -79.44589 8993 ft 307 kts 333°
2026-05-06 16:17 43.53334 -79.46122 8250 ft 306 kts 314°
2026-05-06 16:17 43.54847 -79.48106 8059 ft 294 kts 313°
2026-05-06 16:18 43.56306 -79.50007 7990 ft 279 kts 313°
2026-05-06 16:18 43.57662 -79.51777 7992 ft 262 kts 310°
2026-05-06 16:18 43.58517 -79.53818 7993 ft 235 kts 277°
2026-05-06 16:18 43.58373 -79.55944 8001 ft 221 kts 245°
2026-05-06 16:19 43.57431 -79.57601 8000 ft 222 kts 225°
2026-05-06 16:19 43.56335 -79.59117 8008 ft 222 kts 228°
2026-05-06 16:19 43.55274 -79.60664 7980 ft 223 kts 229°
2026-05-06 16:19 43.54203 -79.62248 7454 ft 233 kts 229°
2026-05-06 16:20 43.53066 -79.63929 6901 ft 241 kts 229°
2026-05-06 16:20 43.52309 -79.65039 6713 ft 239 kts 228°
2026-05-06 16:20 43.51179 -79.66684 6531 ft 232 kts 228°
2026-05-06 16:20 43.49728 -79.68789 6340 ft 226 kts 228°
2026-05-06 16:21 43.48643 -79.70363 6197 ft 226 kts 228°
2026-05-06 16:21 43.47563 -79.71930 6059 ft 226 kts 228°
2026-05-06 16:21 43.46844 -79.72974 5964 ft 225 kts 228°
2026-05-06 16:21 43.45762 -79.74542 5837 ft 225 kts 228°
2026-05-06 16:22 43.44683 -79.76102 5712 ft 225 kts 228°
2026-05-06 16:22 43.43602 -79.77663 5572 ft 224 kts 228°
2026-05-06 16:22 43.42523 -79.79219 5455 ft 224 kts 228°
2026-05-06 16:22 43.41476 -79.80803 5312 ft 222 kts 237°
2026-05-06 16:23 43.40904 -79.82708 5195 ft 219 kts 263°
2026-05-06 16:23 43.41048 -79.84796 5152 ft 220 kts 290°
2026-05-06 16:23 43.41891 -79.86505 5103 ft 222 kts 318°
2026-05-06 16:23 43.43269 -79.87475 5047 ft 226 kts 345°
2026-05-06 16:24 43.44821 -79.87897 5001 ft 228 kts 347°
2026-05-06 16:24 43.46382 -79.88314 4951 ft 228 kts 347°
2026-05-06 16:24 43.47940 -79.88733 4899 ft 228 kts 346°
2026-05-06 16:24 43.49496 -79.89141 4843 ft 228 kts 351°
2026-05-06 16:25 43.51080 -79.88989 4789 ft 231 kts 15°
2026-05-06 16:25 43.52502 -79.87934 4677 ft 235 kts 41°
2026-05-06 16:25 43.53635 -79.86347 4531 ft 236 kts 45°
2026-05-06 16:25 43.54759 -79.84709 4260 ft 235 kts 45°
2026-05-06 16:26 43.55876 -79.83092 3953 ft 230 kts 45°
2026-05-06 16:26 43.56980 -79.81500 3632 ft 226 kts 45°
2026-05-06 16:26 43.58048 -79.79960 3320 ft 222 kts 46°
2026-05-06 16:26 43.59098 -79.78444 3032 ft 215 kts 46°
2026-05-06 16:27 43.60103 -79.76992 2761 ft 202 kts 46°
2026-05-06 16:27 43.61041 -79.75637 2473 ft 187 kts 46°
2026-05-06 16:27 43.61897 -79.74398 2233 ft 169 kts 46°
2026-05-06 16:27 43.62683 -79.73261 1996 ft 157 kts 46°
2026-05-06 16:28 43.63415 -79.72202 1779 ft 150 kts 45°
2026-05-06 16:28 43.64126 -79.71174 1579 ft 146 kts 45°
2026-05-06 16:28 43.64828 -79.70157 1379 ft 146 kts 45°
2026-05-06 16:28 43.65524 -79.69149 1171 ft 145 kts 46°
2026-05-06 16:29 43.66222 -79.68148 969 ft 144 kts 46°
2026-05-06 16:29 43.66920 -79.67159 775 ft 143 kts 48°
2026-05-06 16:29 43.67593 -79.66166 597 ft 143 kts 49°
2026-05-06 16:29 43.68217 -79.65229 573 ft 108 kts 46°
2026-05-06 16:30 43.68603 -79.64678 568 ft 58 kts 46°
2026-05-06 16:30 43.68733 -79.64436 564 ft 29 kts 73°
2026-05-06 16:30 43.68778 -79.64110 568 ft 22 kts 80°
2026-05-06 16:30 43.68838 -79.63941 575 ft 18 kts 53°
2026-05-06 16:31 43.68919 -79.63821 571 ft 19 kts 48°
2026-05-06 16:31 43.69002 -79.63693 573 ft 17 kts 47°
2026-05-06 16:31 43.68991 -79.63561 569 ft 16 kts 133°
2026-05-06 16:31 43.68918 -79.63465 566 ft 13 kts 137°
2026-05-06 16:32 43.68839 -79.63363 567 ft 19 kts 136°
2026-05-06 16:32 43.68741 -79.63231 562 ft 19 kts 138°
2026-05-06 16:32 43.68649 -79.63110 562 ft 18 kts 136°
2026-05-06 16:32 43.68565 -79.62998 564 ft 16 kts 136°
2026-05-06 16:33 43.68492 -79.62903 567 ft 14 kts 139°
2026-05-06 16:33 43.68392 -79.62778 568 ft 24 kts 136°
2026-05-06 16:33 43.68269 -79.62616 568 ft 24 kts 136°
2026-05-06 16:34 43.68029 -79.62305 564 ft 27 kts 137°
2026-05-06 16:34 43.67919 -79.62124 562 ft 24 kts 94°
2026-05-06 16:34 43.67993 -79.61948 568 ft 20 kts 69°
2026-05-06 16:34 43.68072 -79.61805 571 ft 18 kts 46°
2026-05-06 16:35 43.68124 -79.61681 562 ft 13 kts 86°
2026-05-06 16:35 43.68146 -79.61588 570 ft 8 kts 58°
2026-05-06 16:35 43.68158 -79.61560 563 ft 0 kts 58°
2026-05-06 16:35 43.68159 -79.61558 563 ft 0 kts 58°